Piney Island, NC

2:13 AM EDT on July 27, 2017 (GMT -0400)
Piney Island

Weather History for KNBT - January, 2014

Change the Weather History Date:

Tuesday, January 14, 2014

  Actual Average (KMRH) Record (KMRH)
Temperature  
Mean Temperature 58 °F -  
Max Temperature 66 °F 55 °F 71 °F (2013)
Min Temperature 48 °F 33 °F 19 °F (1969)
Degree Days  
Heating Degree Days 7    
Growing Degree Days 8 (Base 50)    
Moisture  
Dew Point 57 °F    
Average Humidity 93    
Maximum Humidity 100    
Minimum Humidity 83    
Precipitation  
Precipitation 0.00 in - - ()
Sea Level Pressure  
Sea Level Pressure 29.89 in    
Wind  
Wind Speed 8 mph (SW)    
Max Wind Speed 20 mph    
Max Gust Speed 36 mph    
Averages and records for this station are not official NWS values.
T = Trace of Precipitation, MM = Missing Value Source: NWS Daily Summary

Daily Weather History Graph

Daily Weather History Graph

Search for Another Location

Airport or City:

Trip Planner

Search our weather history database for the weather conditions in past years. The results will help you decide how hot, cold, wet, or windy it might be!

Date:

Astronomy

Jan. 14, 2014 Rise Set
Actual Time 7:13 AM EST 5:16 PM EST
Civil Twilight 6:46 AM EST 5:44 PM EST
Nautical Twilight 6:14 AM EST 6:15 PM EST
Astronomical Twilight 5:44 AM EST 6:45 PM EST
Moon 4:18 PM EST (1/14) 5:47 AM EST (1/14)
Length of Visible Light 10h 58m
Length of Day
10h 02m
Waxing Gibbous, 98% of the Moon is Illuminated
Jan 14
Waxing Gibbous
Jan 15
Full
Jan 24
Last Quarter
Jan 30
New
Feb 6
First Quarter

Hourly Weather History & Observations

Time (EST) Temp. Dew Point Humidity Pressure Visibility Wind Dir Wind Speed Gust Speed Precip Events Conditions
12:56 AM 61.0 °F 55.9 °F 83% 30.00 in - SSE 5.8 mph - N/A   Partly Cloudy
1:56 AM 62.1 °F 59.0 °F 90% 29.97 in - SW 4.6 mph - N/A   Scattered Clouds
2:56 AM 61.0 °F 57.9 °F 90% 29.93 in - SSE 3.5 mph - N/A   Partly Cloudy
3:56 AM 60.1 °F 57.9 °F 93% 29.93 in - SSE 5.8 mph - N/A   Clear
4:56 AM 61.0 °F 57.9 °F 90% 29.91 in - SSE 3.5 mph - N/A   Partly Cloudy
5:56 AM 61.0 °F 59.0 °F 93% 29.88 in - WSW 5.8 mph - N/A Rain Rain
6:10 AM 61.0 °F 59.0 °F 93% 29.88 in - West 11.5 mph - N/A Rain Heavy Rain
6:38 AM 63.0 °F 62.1 °F 97% 29.87 in - South 8.1 mph - N/A Rain Rain
6:56 AM 63.0 °F 62.1 °F 97% 29.88 in - South 4.6 mph - N/A Rain Light Rain
7:56 AM 61.0 °F 61.0 °F 100% 29.86 in - South 3.5 mph - N/A Rain Rain
8:15 AM 62.1 °F 62.1 °F 100% 29.85 in - South 9.2 mph - N/A Rain Heavy Rain
8:56 AM 64.0 °F 64.0 °F 100% 29.88 in - South 6.9 mph - N/A Rain Heavy Rain
9:16 AM 64.0 °F 64.0 °F 100% 29.86 in - South 6.9 mph - N/A Rain Rain
9:51 AM 64.4 °F 64.4 °F 100% 29.86 in - SW 9.2 mph - N/A Rain Heavy Rain
9:56 AM 64.0 °F 64.0 °F 100% 29.86 in - SW 9.2 mph - N/A Rain Heavy Rain
10:56 AM 64.0 °F - N/A% 29.85 in - SSW 8.1 mph - N/A Rain Light Rain
11:56 AM 64.9 °F - N/A% 29.80 in - South 9.2 mph - N/A   Mostly Cloudy
12:56 PM 66.0 °F - N/A% 29.78 in - SW 15.0 mph 23.0 mph N/A   Mostly Cloudy
1:56 PM 64.9 °F - N/A% 29.76 in - WSW 15.0 mph 26.5 mph N/A   Partly Cloudy
2:56 PM 64.0 °F 64.0 °F 100% 29.79 in - SW 19.6 mph - N/A   Overcast
3:50 PM 59.0 °F 55.4 °F 88% 29.82 in - West 16.1 mph 35.7 mph N/A Rain Light Rain
3:56 PM 59.0 °F 55.9 °F 90% 29.85 in - West 17.3 mph 23.0 mph N/A Rain Light Rain
4:03 PM 59.0 °F 55.0 °F 87% 29.83 in - West 15.0 mph - N/A Rain Light Rain
4:56 PM 57.9 °F 55.9 °F 93% 29.86 in - WSW 4.6 mph - N/A   Overcast
5:43 PM 57.0 °F 55.0 °F 93% 29.87 in - West 11.5 mph - N/A   Overcast
5:56 PM 57.0 °F 55.0 °F 93% 29.89 in - WNW 11.5 mph - N/A   Overcast
6:03 PM 55.9 °F 54.0 °F 93% 29.89 in - WNW 11.5 mph - N/A   Overcast
6:11 PM 55.9 °F 53.1 °F 90% 29.89 in - WNW 10.4 mph - N/A   Overcast
6:29 PM 55.0 °F 52.0 °F 89% 29.90 in - WNW 11.5 mph - N/A   Scattered Clouds
6:56 PM 54.0 °F 52.0 °F 93% 29.92 in - NW 5.8 mph - N/A   Clear
7:56 PM 51.1 °F 48.9 °F 92% 29.96 in - WNW 6.9 mph - N/A   Clear
8:56 PM 51.1 °F 48.9 °F 92% 29.99 in - West 3.5 mph - N/A   Clear
9:38 PM 51.1 °F 48.9 °F 92% 29.99 in - Calm Calm - N/A   Mostly Cloudy
9:56 PM 51.1 °F 48.9 °F 92% 30.00 in - Calm Calm - N/A   Overcast
10:56 PM 50.0 °F 48.0 °F 93% 30.00 in - West 6.9 mph - N/A   Clear
11:56 PM 48.9 °F 46.9 °F 93% 30.00 in - WNW 5.8 mph - N/A   Clear